User: anonymous   Login
Location: Unspecified
(0.0000°N, 0.0000°E)
Time: 22:13:43
(UTC+01:00)
Language:

Ariane H10 - Orbit

View from above orbital plane
View from above orbital plane
View from above satellite
View from above satellite

Ground track
Ground track

The orbit data is extracted from the following two-line orbital elements,

1 21815U 91084C   15032.18460273 -.00000009  00000-0  63574-3 0  7278
2 21815 003.9896 077.3464 7191614 088.7852 353.4031 02.31176128192240
Epoch (UTC): 01 February 2015 04:25:49
Eccentricity: 0.7191614
inclination: 3.9896°
perigee height: 407 km
apogee height: 35157 km
right ascension of ascending node: 77.3464°
argument of perigee: 88.7852°
revolutions per day: 2.31176128
mean anomaly at epoch: 353.4031°
orbit number at epoch: 19224

The dashed part of the orbit path shows where the satellite is in the earth's shadow,  

DLR